Regional Weather Roundup
Issued by NWS

Home | Current Version | Previous Version | Text Only | Print | Product List | Glossary Off
Versions: 1 2 3 4 5 6 7 8 9 10 11 12 13 14 15 16 17 18 19 20 21 22 23 24 25 26 27 28 29 30 31 32 33 34 35 36 37 38 39 40 41 42 43 44 45 46 47 48 49 50

000
ASUS43 KOAX 260502
RWRNE

WEATHER ROUNDUP FOR NEBRASKA
NATIONAL WEATHER SERVICE OMAHA NE
1200 AM CDT SUN APR 26 2015

NOTES: SATELLITE DATA IS BEING USED TO AUGMENT CLOUD COVER ABOVE
       12000 FEET.
       "FAIR" INDICATES FEW OR NO CLOUDS BELOW 12,000 FEET WITH NO
       SIGNIFICANT WEATHER AND/OR OBSTRUCTIONS TO VISIBILITY.

  * THESE STATIONS DO NOT REPORT WEATHER SUCH AS RAIN...SNOW OR FOG.

NEZ001>004-019>022-054>056-260600-
NEBRASKA PANHANDLE

CITY           SKY/WX    TMP DP  RH WIND       PRES   REMARKS
SCOTTSBLUFF    LGT RAIN  52  47  83 VRB7      29.83R
ALLIANCE       CLOUDY    50  47  89 E15       29.81F
CHADRON        CLOUDY    48  47  96 NW3       29.82S FOG
KIMBALL        RAIN      46  42  84 NE15G21   29.80F
SIDNEY         RAIN      48  46  93 S5        29.87R FOG
$$

NEZ057>060-069>072-079>082-260600-
SOUTHWEST NEBRASKA

CITY           SKY/WX    TMP DP  RH WIND       PRES   REMARKS
IMPERIAL       CLOUDY    51  46  83 E18G25    29.81S
LEXINGTON      CLOUDY    49  46  87 E15       29.87R
MCCOOK         CLOUDY    49  46  90 E18       29.84R FOG
$$

NEZ005>010-023>029-035>040-094-260600-
NORTH CENTRAL NEBRASKA

CITY           SKY/WX    TMP DP  RH WIND       PRES   REMARKS
VALENTINE      CLOUDY    52  45  77 E12       29.87S
AINSWORTH      CLOUDY    49  45  84 E3        29.88S
BROKEN BOW     MOCLDY    47  43  86 E8        29.88R
ORD            PTCLDY    44  41  89 E3        29.88R
$$

NEZ041-046>049-061>064-073>077-083>087-260600-
SOUTH CENTRAL NEBRASKA

CITY           SKY/WX    TMP DP  RH WIND       PRES   REMARKS
GRAND ISLAND   CLOUDY    48  44  86 E13       29.89R
AURORA         CLOUDY    48  46  93 E13       29.88R
HASTINGS       CLOUDY    48  45  89 E10       29.86S
HEBRON         CLOUDY    48  45  87 E7        29.87R
HOLDREGE       CLOUDY    46  44  91 E10       29.87R FOG
KEARNEY *      CLOUDY    46  43  87 E15       29.88R
YORK           CLOUDY    48  46  93 E10       29.89R
$$

NEZ011>018-030>034-042>045-260600-
NORTHEAST NEBRASKA

CITY           SKY/WX    TMP DP  RH WIND       PRES   REMARKS
NORFOLK        MOCLDY    48  41  76 E8        29.91R
ALBION         PTCLDY    47  41  80 E8        29.91R
BLAIR          CLOUDY    48  42  79 NE10      29.90R
COLUMBUS *     CLOUDY    48  41  76 E10       29.92R
FREMONT        CLOUDY    50  43  76 NE7       29.91R
TEKAMAH        MOCLDY    47  42  83 NE7       29.92R
WAYNE          CLOUDY    50  40  68 E9        29.92S
$$

NEZ050>053-065>068-078-088>093-260600-
SOUTHEAST NEBRASKA

CITY           SKY/WX    TMP DP  RH WIND       PRES   REMARKS
LINCOLN        CLOUDY    50  44  80 NE8       29.89R
OMAHA EPPLEY   CLOUDY    50  43  77 E8        29.90R
BEATRICE       CLOUDY    48  46  93 E9        29.87R FOG
FALLS CITY     CLOUDY    49  45  86 NE12      29.85R
NEBRASKA CITY  CLOUDY    49  45  88 NE9       29.87R
PLATTSMOUTH    CLOUDY    48  44  85 NE8       29.89R
$$

NEZ044-045-051>053-067-260600-
OMAHA AREA

CITY           SKY/WX    TMP DP  RH WIND       PRES   REMARKS
OMAHA EPPLEY   CLOUDY    50  43  77 E8        29.90R
BLAIR          CLOUDY    48  42  79 NE10      29.90R
FREMONT        CLOUDY    50  43  76 NE7       29.91R
OFFUTT AFB     CLOUDY    49  44  81 NE7       29.89R
PLATTSMOUTH    CLOUDY    48  44  85 NE8       29.89R
WAHOO          CLOUDY    49  43  78 NE9       29.90R
$$



USA.gov is the U.S. government's official web portal to all federal, state and local government web resources and services.